owner,sensor,date,latitude,longitude,vertical_datum,sea_water_practical_salinity,qcFlag 
DISL,ioos:station:DISL:BSCA:1,2018-04-01T08:00:00Z,30.3288,-87.8293,2.061,3.75,1111122 
DISL,ioos:station:DISL:BSCA:1,2018-04-01T09:00:00Z,30.3288,-87.8293,2.056,3.81,1111122 
DISL,ioos:station:DISL:BSCA:1,2018-04-01T10:00:00Z,30.3288,-87.8293,2.078,6.0,1111122 
DISL,ioos:station:DISL:BSCA:1,2018-04-01T11:00:00Z,30.3288,-87.8293,2.063,6.58,1111122 
DISL,ioos:station:DISL:BSCA:1,2018-04-01T12:00:00Z,30.3288,-87.8293,2.014,4.39,1111122 
DISL,ioos:station:DISL:BSCA:1,2018-04-01T13:00:00Z,30.3288,-87.8293,2.028,7.26,1111122 
DISL,ioos:station:DISL:BSCA:1,2018-04-01T13:30:00Z,30.3288,-87.8293,2.036,4.01,1111122 
DISL,ioos:station:DISL:BSCA:1,2018-04-02T19:30:00Z,30.3288,-87.8293,2.171,11.96,1111122 
DISL,ioos:station:DISL:BSCA:1,2018-04-03T10:30:00Z,30.3288,-87.8293,2.093,10.19,1111122 
DISL,ioos:station:DISL:BSCA:1,2018-04-04T18:00:00Z,30.3288,-87.8293,2.023,11.84,1111122 
DISL,ioos:station:DISL:BSCA:1,2018-04-04T18:30:00Z,30.3288,-87.8293,2.003,11.86,1111122 
DISL,ioos:station:DISL:BSCA:1,2018-04-04T20:00:00Z,30.3288,-87.8293,1.984,11.88,1111122 
DISL,ioos:station:DISL:BSCA:1,2018-04-04T20:30:00Z,30.3288,-87.8293,1.983,11.85,1111122 
DISL,ioos:station:DISL:BSCA:1,2018-04-04T21:30:00Z,30.3288,-87.8293,1.979,11.84,1111122 
DISL,ioos:station:DISL:BSCA:1,2018-04-04T22:30:00Z,30.3288,-87.8293,1.989,11.85,1111122 
DISL,ioos:station:DISL:BSCA:1,2018-04-04T23:30:00Z,30.3288,-87.8293,1.933,11.91,1111122 
DISL,ioos:station:DISL:BSCA:1,2018-04-05T00:30:00Z,30.3288,-87.8293,1.871,11.91,1111122 
DISL,ioos:station:DISL:BSCA:1,2018-04-05T01:30:00Z,30.3288,-87.8293,1.835,11.99,1111122 
DISL,ioos:station:DISL:BSCA:1,2018-04-05T02:30:00Z,30.3288,-87.8293,1.791,12.08,1111122 
DISL,ioos:station:DISL:BSCA:1,2018-04-05T03:30:00Z,30.3288,-87.8293,1.717,12.01,1111122 
DISL,ioos:station:DISL:BSCA:1,2018-04-05T04:30:00Z,30.3288,-87.8293,1.685,12.38,1111122 
DISL,ioos:station:DISL:BSCA:1,2018-04-05T05:30:00Z,30.3288,-87.8293,1.681,12.94,1111122 
DISL,ioos:station:DISL:BSCA:1,2018-04-05T06:30:00Z,30.3288,-87.8293,1.662,12.43,1111122 
DISL,ioos:station:DISL:BSCA:1,2018-04-05T07:30:00Z,30.3288,-87.8293,1.664,12.35,1111122 
DISL,ioos:station:DISL:BSCA:1,2018-04-05T08:30:00Z,30.3288,-87.8293,1.667,12.33,1111122 
DISL,ioos:station:DISL:BSCA:1,2018-04-05T09:30:00Z,30.3288,-87.8293,1.645,12.44,1111122 
DISL,ioos:station:DISL:BSCA:1,2018-04-05T10:30:00Z,30.3288,-87.8293,1.641,12.55,1111122 
DISL,ioos:station:DISL:BSCA:1,2018-04-05T11:30:00Z,30.3288,-87.8293,1.699,12.53,1111122 
DISL,ioos:station:DISL:BSCA:1,2018-04-05T12:30:00Z,30.3288,-87.8293,1.765,12.5,1111122 
DISL,ioos:station:DISL:BSCA:1,2018-04-05T13:30:00Z,30.3288,-87.8293,1.817,12.47,1111122 
DISL,ioos:station:DISL:BSCA:1,2018-04-05T14:00:00Z,30.3288,-87.8293,1.836,12.5,1111122 
DISL,ioos:station:DISL:BSCA:1,2018-04-06T08:30:00Z,30.3288,-87.8293,1.697,12.65,1111122 
DISL,ioos:station:DISL:BSCA:1,2018-04-06T09:30:00Z,30.3288,-87.8293,1.726,12.66,1111122 
DISL,ioos:station:DISL:BSCA:1,2018-04-06T10:30:00Z,30.3288,-87.8293,1.781,12.26,1111122 
DISL,ioos:station:DISL:BSCA:1,2018-04-06T11:30:00Z,30.3288,-87.8293,1.835,12.47,1111122 
DISL,ioos:station:DISL:BSCA:1,2018-04-06T12:30:00Z,30.3288,-87.8293,1.891,12.56,1111122 
DISL,ioos:station:DISL:BSCA:1,2018-04-08T04:00:00Z,30.3288,-87.8293,1.81,9.47,1111122 
DISL,ioos:station:DISL:BSCA:1,2018-04-08T04:30:00Z,30.3288,-87.8293,1.773,9.51,1111122 
DISL,ioos:station:DISL:BSCA:1,2018-04-08T05:30:00Z,30.3288,-87.8293,1.715,9.66,1111122 
DISL,ioos:station:DISL:BSCA:1,2018-04-08T06:30:00Z,30.3288,-87.8293,1.653,9.87,1111122 
DISL,ioos:station:DISL:BSCA:1,2018-04-08T07:30:00Z,30.3288,-87.8293,1.615,10.02,1111122 
DISL,ioos:station:DISL:BSCA:1,2018-04-08T08:30:00Z,30.3288,-87.8293,1.613,10.2,1111122 
DISL,ioos:station:DISL:BSCA:1,2018-04-08T09:30:00Z,30.3288,-87.8293,1.638,10.06,1111122 
DISL,ioos:station:DISL:BSCA:1,2018-04-08T11:30:00Z,30.3288,-87.8293,1.708,10.16,1111122 
DISL,ioos:station:DISL:BSCA:1,2018-04-09T22:00:00Z,30.3288,-87.8293,2.161,11.98,1111122 
DISL,ioos:station:DISL:BSCA:1,2018-04-09T23:00:00Z,30.3288,-87.8293,2.18,11.67,1111122 
DISL,ioos:station:DISL:BSCA:1,2018-04-09T23:30:00Z,30.3288,-87.8293,2.173,11.75,1111122 
DISL,ioos:station:DISL:BSCA:1,2018-04-10T00:30:00Z,30.3288,-87.8293,2.162,11.49,1111122 
DISL,ioos:station:DISL:BSCA:1,2018-04-10T01:30:00Z,30.3288,-87.8293,2.109,11.46,1111122 
DISL,ioos:station:DISL:BSCA:1,2018-04-10T02:30:00Z,30.3288,-87.8293,2.053,11.49,1111122 
DISL,ioos:station:DISL:BSCA:1,2018-04-10T03:30:00Z,30.3288,-87.8293,2.006,11.46,1111122 
DISL,ioos:station:DISL:BSCA:1,2018-04-10T04:30:00Z,30.3288,-87.8293,1.953,11.89,1111122 
DISL,ioos:station:DISL:BSCA:1,2018-04-10T18:30:00Z,30.3288,-87.8293,2.022,12.19,1111122 
DISL,ioos:station:DISL:BSCA:1,2018-04-10T20:00:00Z,30.3288,-87.8293,2.084,12.81,1111122 
DISL,ioos:station:DISL:BSCA:1,2018-04-10T20:30:00Z,30.3288,-87.8293,2.094,13.17,1111122 
DISL,ioos:station:DISL:BSCA:1,2018-04-10T21:30:00Z,30.3288,-87.8293,2.114,13.17,1111122 
DISL,ioos:station:DISL:BSCA:1,2018-04-10T23:00:00Z,30.3288,-87.8293,2.139,12.55,1111122 
DISL,ioos:station:DISL:BSCA:1,2018-04-10T23:30:00Z,30.3288,-87.8293,2.132,12.51,1111122 
DISL,ioos:station:DISL:BSCA:1,2018-04-11T00:30:00Z,30.3288,-87.8293,2.102,12.31,1111122 
DISL,ioos:station:DISL:BSCA:1,2018-04-11T01:30:00Z,30.3288,-87.8293,2.088,11.92,1111122 
DISL,ioos:station:DISL:BSCA:1,2018-04-11T02:30:00Z,30.3288,-87.8293,2.059,11.98,1111122 
DISL,ioos:station:DISL:BSCA:1,2018-04-11T03:30:00Z,30.3288,-87.8293,2.039,12.03,1111122 
DISL,ioos:station:DISL:BSCA:1,2018-04-11T04:30:00Z,30.3288,-87.8293,1.985,12.01,1111122 
DISL,ioos:station:DISL:BSCA:1,2018-04-11T05:30:00Z,30.3288,-87.8293,1.932,11.91,1111122 
DISL,ioos:station:DISL:BSCA:1,2018-04-11T06:30:00Z,30.3288,-87.8293,1.911,11.86,1111122 
DISL,ioos:station:DISL:BSCA:1,2018-04-11T07:30:00Z,30.3288,-87.8293,1.872,11.91,1111122 
DISL,ioos:station:DISL:BSCA:1,2018-04-11T08:30:00Z,30.3288,-87.8293,1.799,11.76,1111122 
DISL,ioos:station:DISL:BSCA:1,2018-04-11T09:30:00Z,30.3288,-87.8293,1.762,11.67,1111122 
DISL,ioos:station:DISL:BSCA:1,2018-04-11T10:30:00Z,30.3288,-87.8293,1.713,11.58,1111122 
DISL,ioos:station:DISL:BSCA:1,2018-04-11T11:30:00Z,30.3288,-87.8293,1.686,11.6,1111122 
DISL,ioos:station:DISL:BSCA:1,2018-04-11T12:30:00Z,30.3288,-87.8293,1.713,11.57,1111122 
DISL,ioos:station:DISL:BSCA:1,2018-04-11T13:00:00Z,30.3288,-87.8293,1.741,11.58,1111122 
DISL,ioos:station:DISL:BSCA:1,2018-04-11T18:00:00Z,30.3288,-87.8293,2.013,11.76,1111122 
DISL,ioos:station:DISL:BSCA:1,2018-04-11T19:00:00Z,30.3288,-87.8293,2.058,11.7,1111122 
DISL,ioos:station:DISL:BSCA:1,2018-04-11T20:00:00Z,30.3288,-87.8293,2.063,11.64,1111122 
DISL,ioos:station:DISL:BSCA:1,2018-04-11T21:00:00Z,30.3288,-87.8293,2.035,11.64,1111122 
DISL,ioos:station:DISL:BSCA:1,2018-04-11T22:00:00Z,30.3288,-87.8293,2.032,11.63,1111122 
DISL,ioos:station:DISL:BSCA:1,2018-04-11T23:00:00Z,30.3288,-87.8293,2.07,11.63,1111122 
DISL,ioos:station:DISL:BSCA:1,2018-04-12T00:00:00Z,30.3288,-87.8293,2.063,11.62,1111122 
DISL,ioos:station:DISL:BSCA:1,2018-04-12T01:00:00Z,30.3288,-87.8293,2.025,11.61,1111122 
DISL,ioos:station:DISL:BSCA:1,2018-04-12T02:00:00Z,30.3288,-87.8293,1.988,11.62,1111122 
DISL,ioos:station:DISL:BSCA:1,2018-04-12T02:30:00Z,30.3288,-87.8293,1.984,11.62,1111122 
DISL,ioos:station:DISL:BSCA:1,2018-04-12T03:30:00Z,30.3288,-87.8293,1.988,11.63,1111122 
DISL,ioos:station:DISL:BSCA:1,2018-04-12T04:30:00Z,30.3288,-87.8293,1.978,11.64,1111122 
DISL,ioos:station:DISL:BSCA:1,2018-04-12T05:30:00Z,30.3288,-87.8293,1.932,11.65,1111122 
DISL,ioos:station:DISL:BSCA:1,2018-04-12T06:30:00Z,30.3288,-87.8293,1.871,11.65,1111122 
DISL,ioos:station:DISL:BSCA:1,2018-04-12T07:30:00Z,30.3288,-87.8293,1.82,11.66,1111122 
DISL,ioos:station:DISL:BSCA:1,2018-04-12T08:30:00Z,30.3288,-87.8293,1.777,11.65,1111122 
DISL,ioos:station:DISL:BSCA:1,2018-04-12T09:30:00Z,30.3288,-87.8293,1.751,11.65,1111122 
DISL,ioos:station:DISL:BSCA:1,2018-04-12T11:00:00Z,30.3288,-87.8293,1.733,11.68,1111122 
DISL,ioos:station:DISL:BSCA:1,2018-04-12T12:00:00Z,30.3288,-87.8293,1.719,11.65,1111122 
DISL,ioos:station:DISL:BSCA:1,2018-04-12T13:00:00Z,30.3288,-87.8293,1.719,11.64,1111122 
DISL,ioos:station:DISL:BSCA:1,2018-04-12T14:00:00Z,30.3288,-87.8293,1.759,11.64,1111122 
DISL,ioos:station:DISL:BSCA:1,2018-04-12T16:00:00Z,30.3288,-87.8293,1.86,11.8,1111122 
DISL,ioos:station:DISL:BSCA:1,2018-04-12T17:00:00Z,30.3288,-87.8293,1.87,11.73,1111122 
DISL,ioos:station:DISL:BSCA:1,2018-04-12T18:30:00Z,30.3288,-87.8293,1.884,11.84,1111122 
DISL,ioos:station:DISL:BSCA:1,2018-04-13T03:00:00Z,30.3288,-87.8293,2.06,11.95,1111122 
DISL,ioos:station:DISL:BSCA:1,2018-04-13T04:00:00Z,30.3288,-87.8293,2.062,11.97,1111122 
DISL,ioos:station:DISL:BSCA:1,2018-04-13T05:00:00Z,30.3288,-87.8293,2.04,11.96,1111122 
DISL,ioos:station:DISL:BSCA:1,2018-04-13T10:00:00Z,30.3288,-87.8293,1.899,12.02,1111122 
DISL,ioos:station:DISL:BSCA:1,2018-04-13T11:00:00Z,30.3288,-87.8293,1.869,12.06,1111122 
DISL,ioos:station:DISL:BSCA:1,2018-04-13T12:00:00Z,30.3288,-87.8293,1.864,12.07,1111122 
DISL,ioos:station:DISL:BSCA:1,2018-04-13T13:00:00Z,30.3288,-87.8293,1.889,12.05,1111122 
DISL,ioos:station:DISL:BSCA:1,2018-04-13T14:00:00Z,30.3288,-87.8293,1.907,12.06,1111122 
DISL,ioos:station:DISL:BSCA:1,2018-04-13T15:00:00Z,30.3288,-87.8293,1.929,12.06,1111122 
DISL,ioos:station:DISL:BSCA:1,2018-04-13T15:30:00Z,30.3288,-87.8293,1.943,12.08,1111122 
DISL,ioos:station:DISL:BSCA:1,2018-04-15T09:00:00Z,30.3288,-87.8293,2.317,11.51,1111122 
DISL,ioos:station:DISL:BSCA:1,2018-04-15T10:00:00Z,30.3288,-87.8293,2.47,11.68,1111122 
DISL,ioos:station:DISL:BSCA:1,2018-04-15T11:00:00Z,30.3288,-87.8293,2.198,11.43,1111122 
DISL,ioos:station:DISL:BSCA:1,2018-04-15T12:00:00Z,30.3288,-87.8293,2.045,12.17,1111122 
DISL,ioos:station:DISL:BSCA:1,2018-04-16T01:00:00Z,30.3288,-87.8293,1.968,12.9,1111122 
DISL,ioos:station:DISL:BSCA:1,2018-04-16T02:00:00Z,30.3288,-87.8293,1.929,13.02,1111122 
DISL,ioos:station:DISL:BSCA:1,2018-04-16T03:00:00Z,30.3288,-87.8293,1.851,13.06,1111122 
DISL,ioos:station:DISL:BSCA:1,2018-04-16T04:00:00Z,30.3288,-87.8293,1.777,13.08,1111122 
DISL,ioos:station:DISL:BSCA:1,2018-04-16T05:00:00Z,30.3288,-87.8293,1.731,12.7,1111122 
DISL,ioos:station:DISL:BSCA:1,2018-04-16T06:00:00Z,30.3288,-87.8293,1.759,12.88,1111122 
DISL,ioos:station:DISL:BSCA:1,2018-04-16T07:00:00Z,30.3288,-87.8293,1.813,13.54,1111122 
DISL,ioos:station:DISL:BSCA:1,2018-04-16T08:00:00Z,30.3288,-87.8293,1.851,13.78,1111122 
DISL,ioos:station:DISL:BSCA:1,2018-04-16T09:00:00Z,30.3288,-87.8293,1.861,13.69,1111122 
DISL,ioos:station:DISL:BSCA:1,2018-04-16T10:00:00Z,30.3288,-87.8293,1.855,12.9,1111122 
DISL,ioos:station:DISL:BSCA:1,2018-04-16T11:00:00Z,30.3288,-87.8293,1.863,12.62,1111122 
DISL,ioos:station:DISL:BSCA:1,2018-04-16T12:00:00Z,30.3288,-87.8293,1.881,13.45,1111122 
DISL,ioos:station:DISL:BSCA:1,2018-04-16T13:00:00Z,30.3288,-87.8293,1.929,13.59,1111122 
DISL,ioos:station:DISL:BSCA:1,2018-04-16T14:00:00Z,30.3288,-87.8293,1.999,13.01,1111122 
DISL,ioos:station:DISL:BSCA:1,2018-04-16T15:00:00Z,30.3288,-87.8293,2.004,12.7,1111122 
DISL,ioos:station:DISL:BSCA:1,2018-04-16T16:00:00Z,30.3288,-87.8293,1.989,12.64,1111122 
DISL,ioos:station:DISL:BSCA:1,2018-04-16T16:30:00Z,30.3288,-87.8293,1.963,12.63,1111122 
DISL,ioos:station:DISL:BSCA:1,2018-04-16T18:00:00Z,30.3288,-87.8293,1.985,12.66,1111122 
DISL,ioos:station:DISL:BSCA:1,2018-04-16T19:00:00Z,30.3288,-87.8293,1.972,12.76,1111122 
DISL,ioos:station:DISL:BSCA:1,2018-04-16T20:00:00Z,30.3288,-87.8293,1.955,12.77,1111122 
DISL,ioos:station:DISL:BSCA:1,2018-04-16T21:00:00Z,30.3288,-87.8293,1.876,12.71,1111122 
DISL,ioos:station:DISL:BSCA:1,2018-04-16T22:00:00Z,30.3288,-87.8293,1.806,12.92,1111122 
DISL,ioos:station:DISL:BSCA:1,2018-04-16T23:00:00Z,30.3288,-87.8293,1.766,12.67,1111122 
DISL,ioos:station:DISL:BSCA:1,2018-04-17T00:00:00Z,30.3288,-87.8293,1.718,12.6,1111122 
DISL,ioos:station:DISL:BSCA:1,2018-04-17T01:00:00Z,30.3288,-87.8293,1.655,12.51,1111122 
DISL,ioos:station:DISL:BSCA:1,2018-04-17T02:00:00Z,30.3288,-87.8293,1.613,12.37,1111122 
DISL,ioos:station:DISL:BSCA:1,2018-04-17T03:00:00Z,30.3288,-87.8293,1.595,12.16,1111122 
DISL,ioos:station:DISL:BSCA:1,2018-04-17T04:00:00Z,30.3288,-87.8293,1.605,11.96,1111122 
DISL,ioos:station:DISL:BSCA:1,2018-04-17T05:00:00Z,30.3288,-87.8293,1.64,11.67,1111122 
DISL,ioos:station:DISL:BSCA:1,2018-04-17T06:00:00Z,30.3288,-87.8293,1.681,12.3,1111122 
DISL,ioos:station:DISL:BSCA:1,2018-04-17T07:00:00Z,30.3288,-87.8293,1.717,12.38,1111122 
DISL,ioos:station:DISL:BSCA:1,2018-04-17T08:30:00Z,30.3288,-87.8293,1.768,12.5,1111122 
DISL,ioos:station:DISL:BSCA:1,2018-04-17T23:30:00Z,30.3288,-87.8293,1.744,11.39,1111122 
DISL,ioos:station:DISL:BSCA:1,2018-04-18T03:00:00Z,30.3288,-87.8293,1.695,11.26,1111122 
DISL,ioos:station:DISL:BSCA:1,2018-04-18T03:30:00Z,30.3288,-87.8293,1.709,11.24,1111122 
DISL,ioos:station:DISL:BSCA:1,2018-04-18T05:00:00Z,30.3288,-87.8293,1.787,10.98,1111122 
DISL,ioos:station:DISL:BSCA:1,2018-04-18T06:00:00Z,30.3288,-87.8293,1.838,10.88,1111122 
DISL,ioos:station:DISL:BSCA:1,2018-04-18T07:00:00Z,30.3288,-87.8293,1.877,10.74,1111122 
DISL,ioos:station:DISL:BSCA:1,2018-04-18T08:00:00Z,30.3288,-87.8293,1.934,10.65,1111122 
DISL,ioos:station:DISL:BSCA:1,2018-04-18T09:00:00Z,30.3288,-87.8293,1.982,10.57,1111122 
DISL,ioos:station:DISL:BSCA:1,2018-04-18T10:00:00Z,30.3288,-87.8293,2.007,10.53,1111122 
DISL,ioos:station:DISL:BSCA:1,2018-04-18T11:00:00Z,30.3288,-87.8293,2.041,10.48,1111122 
DISL,ioos:station:DISL:BSCA:1,2018-04-18T17:00:00Z,30.3288,-87.8293,2.168,11.15,1111122 
DISL,ioos:station:DISL:BSCA:1,2018-04-18T18:00:00Z,30.3288,-87.8293,2.157,11.19,1111122 
DISL,ioos:station:DISL:BSCA:1,2018-04-18T19:00:00Z,30.3288,-87.8293,2.133,11.2,1111122 
DISL,ioos:station:DISL:BSCA:1,2018-04-18T20:00:00Z,30.3288,-87.8293,2.077,11.31,1111122 
DISL,ioos:station:DISL:BSCA:1,2018-04-18T20:30:00Z,30.3288,-87.8293,2.055,6.81,1111122 
DISL,ioos:station:DISL:BSCA:1,2018-04-18T22:00:00Z,30.3288,-87.8293,1.976,11.34,1111122 
DISL,ioos:station:DISL:BSCA:1,2018-04-18T23:00:00Z,30.3288,-87.8293,1.914,11.25,1111122 
DISL,ioos:station:DISL:BSCA:1,2018-04-19T00:00:00Z,30.3288,-87.8293,1.825,4.62,1111122 
DISL,ioos:station:DISL:BSCA:1,2018-04-19T01:00:00Z,30.3288,-87.8293,1.783,9.86,1111122 
DISL,ioos:station:DISL:BSCA:1,2018-04-19T04:00:00Z,30.3288,-87.8293,1.743,3.66,1111122 
DISL,ioos:station:DISL:BSCA:1,2018-04-19T05:00:00Z,30.3288,-87.8293,1.729,9.64,1111122 
DISL,ioos:station:DISL:BSCA:1,2018-04-19T06:00:00Z,30.3288,-87.8293,1.736,9.73,1111122 
DISL,ioos:station:DISL:BSCA:1,2018-04-19T07:00:00Z,30.3288,-87.8293,1.791,9.78,1111122 
DISL,ioos:station:DISL:BSCA:1,2018-04-19T10:00:00Z,30.3288,-87.8293,1.962,10.04,1111122 
DISL,ioos:station:DISL:BSCA:1,2018-04-19T17:00:00Z,30.3288,-87.8293,2.164,12.75,1111122 
DISL,ioos:station:DISL:BSCA:1,2018-04-19T18:00:00Z,30.3288,-87.8293,2.111,13.18,1111122 
DISL,ioos:station:DISL:BSCA:1,2018-04-19T19:00:00Z,30.3288,-87.8293,2.071,13.48,1111122 
DISL,ioos:station:DISL:BSCA:1,2018-04-19T20:00:00Z,30.3288,-87.8293,2.052,13.5,1111122 
DISL,ioos:station:DISL:BSCA:1,2018-04-19T21:00:00Z,30.3288,-87.8293,2.041,13.47,1111122 
DISL,ioos:station:DISL:BSCA:1,2018-04-19T22:00:00Z,30.3288,-87.8293,2.006,13.43,1111122 
DISL,ioos:station:DISL:BSCA:1,2018-04-19T23:00:00Z,30.3288,-87.8293,1.938,13.55,1111122 
DISL,ioos:station:DISL:BSCA:1,2018-04-20T00:00:00Z,30.3288,-87.8293,1.854,13.63,1111122 
DISL,ioos:station:DISL:BSCA:1,2018-04-20T01:00:00Z,30.3288,-87.8293,1.789,13.74,1111122 
DISL,ioos:station:DISL:BSCA:1,2018-04-20T02:00:00Z,30.3288,-87.8293,1.717,13.55,1111122 
DISL,ioos:station:DISL:BSCA:1,2018-04-20T03:00:00Z,30.3288,-87.8293,1.647,13.08,1111122 
DISL,ioos:station:DISL:BSCA:1,2018-04-20T04:00:00Z,30.3288,-87.8293,1.57,12.63,1111122 
DISL,ioos:station:DISL:BSCA:1,2018-04-20T04:30:00Z,30.3288,-87.8293,1.549,10.66,1111122 
DISL,ioos:station:DISL:BSCA:1,2018-04-20T06:00:00Z,30.3288,-87.8293,1.472,9.4,1111122 
DISL,ioos:station:DISL:BSCA:1,2018-04-20T07:00:00Z,30.3288,-87.8293,1.435,9.2,1111122 
DISL,ioos:station:DISL:BSCA:1,2018-04-20T08:00:00Z,30.3288,-87.8293,1.438,9.23,1111122 
DISL,ioos:station:DISL:BSCA:1,2018-04-20T09:00:00Z,30.3288,-87.8293,1.478,9.19,1111122 
DISL,ioos:station:DISL:BSCA:1,2018-04-20T10:00:00Z,30.3288,-87.8293,1.533,9.11,1111122 
DISL,ioos:station:DISL:BSCA:1,2018-04-20T11:00:00Z,30.3288,-87.8293,1.588,9.12,1111122 
DISL,ioos:station:DISL:BSCA:1,2018-04-20T12:00:00Z,30.3288,-87.8293,1.672,9.22,1111122 
DISL,ioos:station:DISL:BSCA:1,2018-04-20T12:30:00Z,30.3288,-87.8293,1.716,9.12,1111122 
DISL,ioos:station:DISL:BSCA:1,2018-04-20T14:00:00Z,30.3288,-87.8293,1.811,9.06,1111122 
DISL,ioos:station:DISL:BSCA:1,2018-04-20T14:30:00Z,30.3288,-87.8293,1.858,9.17,1111122 
DISL,ioos:station:DISL:BSCA:1,2018-04-21T08:00:00Z,30.3288,-87.8293,1.572,11.6,1111122 
DISL,ioos:station:DISL:BSCA:1,2018-04-21T09:00:00Z,30.3288,-87.8293,1.588,10.65,1111122 
DISL,ioos:station:DISL:BSCA:1,2018-04-21T10:00:00Z,30.3288,-87.8293,1.641,11.15,1111122 
DISL,ioos:station:DISL:BSCA:1,2018-04-21T11:00:00Z,30.3288,-87.8293,1.712,11.25,1111122 
DISL,ioos:station:DISL:BSCA:1,2018-04-21T12:00:00Z,30.3288,-87.8293,1.779,11.07,1111122 
DISL,ioos:station:DISL:BSCA:1,2018-04-21T13:00:00Z,30.3288,-87.8293,1.855,10.86,1111122 
DISL,ioos:station:DISL:BSCA:1,2018-04-21T14:00:00Z,30.3288,-87.8293,1.914,10.64,1111122 
DISL,ioos:station:DISL:BSCA:1,2018-04-21T15:00:00Z,30.3288,-87.8293,1.965,9.1,1111122 
DISL,ioos:station:DISL:BSCA:1,2018-04-21T16:00:00Z,30.3288,-87.8293,2.03,9.23,1111122 
DISL,ioos:station:DISL:BSCA:1,2018-04-21T17:00:00Z,30.3288,-87.8293,2.099,9.03,1111122 
DISL,ioos:station:DISL:BSCA:1,2018-04-21T18:00:00Z,30.3288,-87.8293,2.168,10.05,1111122 
DISL,ioos:station:DISL:BSCA:1,2018-04-21T19:00:00Z,30.3288,-87.8293,2.201,9.28,1111122 
DISL,ioos:station:DISL:BSCA:1,2018-04-21T19:30:00Z,30.3288,-87.8293,2.2,10.01,1111122 
DISL,ioos:station:DISL:BSCA:1,2018-04-23T05:00:00Z,30.3288,-87.8293,1.974,3.84,1111122 
DISL,ioos:station:DISL:BSCA:1,2018-04-23T08:00:00Z,30.3288,-87.8293,1.821,3.15,1111122 
DISL,ioos:station:DISL:BSCA:1,2018-04-23T09:00:00Z,30.3288,-87.8293,1.778,3.78,1111122 
DISL,ioos:station:DISL:BSCA:1,2018-04-23T09:30:00Z,30.3288,-87.8293,1.773,8.36,1111122 
DISL,ioos:station:DISL:BSCA:1,2018-04-23T20:30:00Z,30.3288,-87.8293,2.373,2.19,1111122 
DISL,ioos:station:DISL:BSCA:1,2018-04-23T22:00:00Z,30.3288,-87.8293,2.406,2.26,1111122 
DISL,ioos:station:DISL:BSCA:1,2018-04-23T23:00:00Z,30.3288,-87.8293,2.355,2.34,1111122 
DISL,ioos:station:DISL:BSCA:1,2018-04-23T23:30:00Z,30.3288,-87.8293,2.317,2.35,1111122 
DISL,ioos:station:DISL:BSCA:1,2018-04-24T01:00:00Z,30.3288,-87.8293,2.24,2.36,1111122 
DISL,ioos:station:DISL:BSCA:1,2018-04-24T01:30:00Z,30.3288,-87.8293,2.204,2.29,1111122 
DISL,ioos:station:DISL:BSCA:1,2018-04-24T02:30:00Z,30.3288,-87.8293,2.13,2.88,1111122 
DISL,ioos:station:DISL:BSCA:1,2018-04-24T03:30:00Z,30.3288,-87.8293,2.082,3.15,1111122 
DISL,ioos:station:DISL:BSCA:1,2018-04-24T05:00:00Z,30.3288,-87.8293,1.916,2.73,1111122 
DISL,ioos:station:DISL:BSCA:1,2018-04-24T06:00:00Z,30.3288,-87.8293,1.836,3.75,1111122 
DISL,ioos:station:DISL:BSCA:1,2018-04-24T07:00:00Z,30.3288,-87.8293,1.8,5.13,1111122 
DISL,ioos:station:DISL:BSCA:1,2018-04-24T21:00:00Z,30.3288,-87.8293,2.176,3.96,1111122 
DISL,ioos:station:DISL:BSCA:1,2018-04-24T22:00:00Z,30.3288,-87.8293,2.183,9.29,1111122 
DISL,ioos:station:DISL:BSCA:1,2018-04-24T23:00:00Z,30.3288,-87.8293,2.169,4.7,1111122 
DISL,ioos:station:DISL:BSCA:1,2018-04-25T00:00:00Z,30.3288,-87.8293,2.09,5.69,1111122 
DISL,ioos:station:DISL:BSCA:1,2018-04-25T01:00:00Z,30.3288,-87.8293,2.026,6.66,1111122 
DISL,ioos:station:DISL:BSCA:1,2018-04-25T01:30:00Z,30.3288,-87.8293,1.992,7.8,1111122 
DISL,ioos:station:DISL:BSCA:1,2018-04-25T02:30:00Z,30.3288,-87.8293,1.919,4.95,1111122 
DISL,ioos:station:DISL:BSCA:1,2018-04-25T03:30:00Z,30.3288,-87.8293,1.871,5.01,1111122 
DISL,ioos:station:DISL:BSCA:1,2018-04-26T04:30:00Z,30.3288,-87.8293,1.917,8.18,1111122 
DISL,ioos:station:DISL:BSCA:1,2018-04-26T05:30:00Z,30.3288,-87.8293,1.88,8.25,1111122 
DISL,ioos:station:DISL:BSCA:1,2018-04-26T07:00:00Z,30.3288,-87.8293,1.828,8.67,1111122 
DISL,ioos:station:DISL:BSCA:1,2018-04-26T07:30:00Z,30.3288,-87.8293,1.82,8.73,1111122 
DISL,ioos:station:DISL:BSCA:1,2018-04-26T12:00:00Z,30.3288,-87.8293,1.887,7.9,1111122 
DISL,ioos:station:DISL:BSCA:1,2018-04-26T20:30:00Z,30.3288,-87.8293,1.946,8.51,1111122 
DISL,ioos:station:DISL:BSCA:1,2018-04-26T22:00:00Z,30.3288,-87.8293,1.966,8.55,1111122 
DISL,ioos:station:DISL:BSCA:1,2018-04-26T23:00:00Z,30.3288,-87.8293,1.974,8.55,1111122 
DISL,ioos:station:DISL:BSCA:1,2018-04-26T23:30:00Z,30.3288,-87.8293,1.975,8.62,1111122 
DISL,ioos:station:DISL:BSCA:1,2018-04-27T01:00:00Z,30.3288,-87.8293,1.925,8.95,1111122 
DISL,ioos:station:DISL:BSCA:1,2018-04-27T01:30:00Z,30.3288,-87.8293,1.888,9.02,1111122 
DISL,ioos:station:DISL:BSCA:1,2018-04-27T02:30:00Z,30.3288,-87.8293,1.907,9.09,1111122 
DISL,ioos:station:DISL:BSCA:1,2018-04-27T03:30:00Z,30.3288,-87.8293,1.877,9.18,1111122 
DISL,ioos:station:DISL:BSCA:1,2018-04-27T04:30:00Z,30.3288,-87.8293,1.847,9.28,1111122 
DISL,ioos:station:DISL:BSCA:1,2018-04-27T06:00:00Z,30.3288,-87.8293,1.824,9.34,1111122 
DISL,ioos:station:DISL:BSCA:1,2018-04-27T07:00:00Z,30.3288,-87.8293,1.835,9.43,1111122 
DISL,ioos:station:DISL:BSCA:1,2018-04-27T08:00:00Z,30.3288,-87.8293,1.815,9.57,1111122 
DISL,ioos:station:DISL:BSCA:1,2018-04-27T20:00:00Z,30.3288,-87.8293,1.882,10.03,1111122 
DISL,ioos:station:DISL:BSCA:1,2018-04-27T21:00:00Z,30.3288,-87.8293,1.845,9.77,1111122 
DISL,ioos:station:DISL:BSCA:1,2018-04-27T22:00:00Z,30.3288,-87.8293,1.82,9.15,1111122 
DISL,ioos:station:DISL:BSCA:1,2018-04-27T23:00:00Z,30.3288,-87.8293,1.8,9.06,1111122 
DISL,ioos:station:DISL:BSCA:1,2018-04-27T23:30:00Z,30.3288,-87.8293,1.795,9.16,1111122 
DISL,ioos:station:DISL:BSCA:1,2018-04-28T00:30:00Z,30.3288,-87.8293,1.831,8.97,1111122 
DISL,ioos:station:DISL:BSCA:1,2018-04-28T01:30:00Z,30.3288,-87.8293,1.829,8.98,1111122 
DISL,ioos:station:DISL:BSCA:1,2018-04-28T02:30:00Z,30.3288,-87.8293,1.829,8.92,1111122 
DISL,ioos:station:DISL:BSCA:1,2018-04-28T03:30:00Z,30.3288,-87.8293,1.835,8.87,1111122 
DISL,ioos:station:DISL:BSCA:1,2018-04-28T04:30:00Z,30.3288,-87.8293,1.853,8.77,1111122 
DISL,ioos:station:DISL:BSCA:1,2018-04-28T05:30:00Z,30.3288,-87.8293,1.862,8.84,1111122 
DISL,ioos:station:DISL:BSCA:1,2018-04-28T06:30:00Z,30.3288,-87.8293,1.872,8.99,1111122 
DISL,ioos:station:DISL:BSCA:1,2018-04-28T08:00:00Z,30.3288,-87.8293,1.834,9.4,1111122 
DISL,ioos:station:DISL:BSCA:1,2018-04-28T15:30:00Z,30.3288,-87.8293,1.947,11.16,1111122 
DISL,ioos:station:DISL:BSCA:1,2018-04-28T17:00:00Z,30.3288,-87.8293,1.971,11.25,1111122 
DISL,ioos:station:DISL:BSCA:1,2018-04-28T19:00:00Z,30.3288,-87.8293,1.925,11.32,1111122 
DISL,ioos:station:DISL:BSCA:1,2018-04-28T20:00:00Z,30.3288,-87.8293,1.891,11.3,1111122 
DISL,ioos:station:DISL:BSCA:1,2018-04-28T21:00:00Z,30.3288,-87.8293,1.854,10.88,1111122 
DISL,ioos:station:DISL:BSCA:1,2018-04-28T22:00:00Z,30.3288,-87.8293,1.82,8.86,1111122 
DISL,ioos:station:DISL:BSCA:1,2018-04-28T23:00:00Z,30.3288,-87.8293,1.793,6.49,1111122 
DISL,ioos:station:DISL:BSCA:1,2018-04-29T00:00:00Z,30.3288,-87.8293,1.796,6.29,1111122 
DISL,ioos:station:DISL:BSCA:1,2018-04-29T01:00:00Z,30.3288,-87.8293,1.801,6.18,1111122 
DISL,ioos:station:DISL:BSCA:1,2018-04-29T02:00:00Z,30.3288,-87.8293,1.787,6.15,1111122 
DISL,ioos:station:DISL:BSCA:1,2018-04-29T03:00:00Z,30.3288,-87.8293,1.782,6.12,1111122 
DISL,ioos:station:DISL:BSCA:1,2018-04-29T04:00:00Z,30.3288,-87.8293,1.793,6.08,1111122 
DISL,ioos:station:DISL:BSCA:1,2018-04-29T05:00:00Z,30.3288,-87.8293,1.81,6.06,1111122 
DISL,ioos:station:DISL:BSCA:1,2018-04-29T06:00:00Z,30.3288,-87.8293,1.813,6.17,1111122 
DISL,ioos:station:DISL:BSCA:1,2018-04-29T07:00:00Z,30.3288,-87.8293,1.823,6.26,1111122 